• In Deutschland
  • Länderverzeichnis
  • Für 7 Tage
  • Wassertemperatur
  • Satellitenkarten
  • Wetterkarte
  • Widgets
  • user-avatar
    Anmelden

    Stündliche Wetter Groß-Gerau

    Heute, 20 Oktober, Freitag

    Zeit Temperatur Niederschläge Wind Luftdruck Luftfeuchtigkeit
    00:00 +16°C° 0 mm 1 m/S 751 mmHg 66%
    01:00 +18°C° 0 mm 1 m/S 751 mmHg 67%
    02:00 +16°C° 0 mm 1 m/S 751 mmHg 67%
    03:00 +16°C° 0 mm 1 m/S 751 mmHg 68%
    04:00 +16°C° 0 mm 2 m/S 751 mmHg 68%
    05:00 +16°C° 0,1 mm 2 m/S 751 mmHg 68%
    06:00 +15°C° 0,1 mm 2 m/S 751 mmHg 69%
    07:00 +15°C° 0,1 mm 2 m/S 751 mmHg 69%
    08:00 +16°C° 0,5 mm 2 m/S 751 mmHg 72%
    09:00 +16°C° 0,5 mm 3 m/S 752 mmHg 75%
    10:00 +16°C° 0,5 mm 3 m/S 752 mmHg 79%
    11:00 +17°C° 0,3 mm 4 m/S 752 mmHg 78%
    12:00 +17°C° 0,3 mm 4 m/S 752 mmHg 78%
    13:00 +16°C° 0,3 mm 5 m/S 752 mmHg 78%
    14:00 +16°C° 0,1 mm 5 m/S 752 mmHg 76%
    15:00 +16°C° 0,1 mm 5 m/S 752 mmHg 74%
    16:00 +17°C° 0,1 mm 4 m/S 752 mmHg 73%
    17:00 +15°C° 0 mm 4 m/S 753 mmHg 75%
    18:00 +14°C° 0 mm 3 m/S 753 mmHg 77%
    19:00 +13°C° 0 mm 3 m/S 753 mmHg 79%
    20:00 +13°C° 0 mm 2 m/S 754 mmHg 81%
    21:00 +13°C° 0 mm 2 m/S 754 mmHg 83%
    22:00 +13°C° 0 mm 2 m/S 754 mmHg 85%
    23:00 +12°C° 0 mm 2 m/S 754 mmHg 87%

    Morgen, 21 Oktober, Samstag

    Zeit Temperatur Niederschläge Wind Luftdruck Luftfeuchtigkeit
    00:00 +12°C° 0 mm 2 m/S 754 mmHg 89%
    01:00 +12°C° 0 mm 2 m/S 754 mmHg 91%
    02:00 +12°C° 0 mm 2 m/S 754 mmHg 92%
    03:00 +12°C° 0 mm 2 m/S 754 mmHg 93%
    04:00 +12°C° 0 mm 2 m/S 753 mmHg 94%
    05:00 +13°C° 0 mm 2 m/S 753 mmHg 93%
    06:00 +13°C° 0 mm 2 m/S 753 mmHg 92%
    07:00 +14°C° 0 mm 2 m/S 753 mmHg 92%
    08:00 +14°C° 0 mm 3 m/S 753 mmHg 87%
    09:00 +16°C° 0 mm 3 m/S 753 mmHg 82%
    10:00 +18°C° 0 mm 4 m/S 753 mmHg 76%
    11:00 +18°C° 0 mm 4 m/S 753 mmHg 74%
    12:00 +19°C° 0 mm 4 m/S 753 mmHg 71%
    13:00 +20°C° 0 mm 4 m/S 752 mmHg 68%
    14:00 +19°C° 0,3 mm 4 m/S 752 mmHg 72%
    15:00 +18°C° 0,3 mm 4 m/S 752 mmHg 77%
    16:00 +18°C° 0,3 mm 3 m/S 752 mmHg 82%
    17:00 +17°C° 0,7 mm 3 m/S 753 mmHg 82%
    18:00 +16°C° 0,7 mm 3 m/S 753 mmHg 82%
    19:00 +14°C° 0,7 mm 3 m/S 753 mmHg 82%
    20:00 +13°C° 0,4 mm 3 m/S 754 mmHg 83%
    21:00 +13°C° 0,4 mm 4 m/S 754 mmHg 84%
    22:00 +12°C° 0,4 mm 4 m/S 754 mmHg 85%
    23:00 +12°C° 0 mm 4 m/S 754 mmHg 85%

    übermorgen, 22 Oktober, Sonntag

    Zeit Temperatur Niederschläge Wind Luftdruck Luftfeuchtigkeit
    00:00 +11°C° 0 mm 4 m/S 755 mmHg 85%
    01:00 +11°C° 0 mm 4 m/S 755 mmHg 86%
    02:00 +11°C° 0 mm 4 m/S 755 mmHg 86%
    03:00 +10°C° 0 mm 4 m/S 754 mmHg 85%
    04:00 +10°C° 0 mm 4 m/S 754 mmHg 85%
    05:00 +10°C° 0 mm 4 m/S 754 mmHg 85%
    06:00 +10°C° 0 mm 4 m/S 754 mmHg 84%
    07:00 +8°C° 0 mm 5 m/S 754 mmHg 83%
    08:00 +9°C° 0 mm 5 m/S 754 mmHg 81%
    09:00 +9°C° 0 mm 5 m/S 754 mmHg 79%
    10:00 +9°C° 0 mm 5 m/S 754 mmHg 76%
    11:00 +10°C° 0,1 mm 5 m/S 754 mmHg 75%
    12:00 +10°C° 0,1 mm 5 m/S 754 mmHg 73%
    13:00 +10°C° 0,1 mm 5 m/S 754 mmHg 71%
    14:00 +10°C° 0,1 mm 5 m/S 754 mmHg 70%
    15:00 +12°C° 0,1 mm 5 m/S 753 mmHg 69%
    16:00 +12°C° 0,1 mm 5 m/S 753 mmHg 68%
    17:00 +11°C° 0 mm 4 m/S 753 mmHg 72%
    18:00 +10°C° 0 mm 4 m/S 754 mmHg 75%
    19:00 +10°C° 0 mm 3 m/S 754 mmHg 78%
    20:00 +8°C° 0 mm 4 m/S 754 mmHg 79%
    21:00 +8°C° 0 mm 4 m/S 754 mmHg 80%
    22:00 +8°C° 0 mm 4 m/S 754 mmHg 80%
    23:00 +8°C° 0,4 mm 4 m/S 754 mmHg 82%

    23 Oktober, Montag

    Zeit Temperatur Niederschläge Wind Luftdruck Luftfeuchtigkeit
    00:00 +8°C° 0,4 mm 4 m/S 754 mmHg 84%
    01:00 +8°C° 0,4 mm 5 m/S 754 mmHg 85%
    02:00 +8°C° 0,5 mm 5 m/S 754 mmHg 86%
    03:00 +8°C° 0,5 mm 5 m/S 753 mmHg 86%
    04:00 +9°C° 0,5 mm 5 m/S 753 mmHg 87%
    05:00 +9°C° 0,2 mm 5 m/S 753 mmHg 86%
    06:00 +9°C° 0,2 mm 5 m/S 753 mmHg 85%
    07:00 +9°C° 0,2 mm 5 m/S 754 mmHg 84%
    08:00 +9°C° 0 mm 5 m/S 754 mmHg 81%
    09:00 +10°C° 0 mm 5 m/S 754 mmHg 78%
    10:00 +10°C° 0 mm 6 m/S 755 mmHg 75%
    11:00 +12°C° 0,1 mm 5 m/S 755 mmHg 74%
    12:00 +12°C° 0,1 mm 5 m/S 755 mmHg 73%
    13:00 +12°C° 0,1 mm 5 m/S 755 mmHg 73%
    14:00 +12°C° 0,2 mm 5 m/S 755 mmHg 75%
    15:00 +12°C° 0,2 mm 5 m/S 755 mmHg 78%
    16:00 +12°C° 0,2 mm 4 m/S 755 mmHg 81%
    17:00 +12°C° 0,6 mm 4 m/S 755 mmHg 83%
    18:00 +11°C° 0,6 mm 4 m/S 755 mmHg 86%
    19:00 +11°C° 0,6 mm 4 m/S 755 mmHg 88%
    20:00 +11°C° 0,6 mm 3 m/S 755 mmHg 89%
    21:00 +11°C° 0,6 mm 3 m/S 755 mmHg 90%
    22:00 +11°C° 0,6 mm 3 m/S 755 mmHg 91%
    23:00 +11°C° 0,4 mm 3 m/S 755 mmHg 91%

    24 Oktober, Dienstag

    Zeit Temperatur Niederschläge Wind Luftdruck Luftfeuchtigkeit
    00:00 +12°C° 0,4 mm 2 m/S 755 mmHg 92%
    01:00 +13°C° 0,4 mm 2 m/S 755 mmHg 92%
    02:00 +13°C° 0,2 mm 2 m/S 755 mmHg 93%
    03:00 +13°C° 0,2 mm 1 m/S 755 mmHg 93%
    04:00 +13°C° 0,2 mm 1 m/S 755 mmHg 94%
    05:00 +13°C° 0,1 mm 1 m/S 756 mmHg 94%
    06:00 +13°C° 0,1 mm 1 m/S 756 mmHg 94%
    07:00 +13°C° 0,1 mm 1 m/S 757 mmHg 94%
    08:00 +13°C° 0 mm 1 m/S 757 mmHg 91%
    09:00 +14°C° 0 mm 1 m/S 758 mmHg 88%
    10:00 +15°C° 0 mm 1 m/S 758 mmHg 85%
    11:00 +16°C° 0 mm 1 m/S 758 mmHg 83%
    12:00 +16°C° 0 mm 1 m/S 758 mmHg 81%
    13:00 +18°C° 0 mm 1 m/S 758 mmHg 79%
    14:00 +17°C° 0 mm 2 m/S 758 mmHg 80%
    15:00 +17°C° 0 mm 2 m/S 758 mmHg 81%
    16:00 +17°C° 0 mm 2 m/S 758 mmHg 82%
    17:00 +16°C° 0 mm 2 m/S 759 mmHg 85%
    18:00 +15°C° 0 mm 2 m/S 759 mmHg 88%
    19:00 +15°C° 0 mm 1 m/S 759 mmHg 91%
    20:00 +14°C° 0 mm 1 m/S 759 mmHg 91%
    21:00 +14°C° 0 mm 1 m/S 760 mmHg 92%
    22:00 +14°C° 0 mm 2 m/S 760 mmHg 93%
    23:00 +14°C° 0 mm 2 m/S 760 mmHg 93%

    25 Oktober, Mittwoch

    Zeit Temperatur Niederschläge Wind Luftdruck Luftfeuchtigkeit
    00:00 +14°C° 0 mm 2 m/S 760 mmHg 93%
    01:00 +14°C° 0 mm 2 m/S 760 mmHg 93%
    02:00 +14°C° 0 mm 2 m/S 760 mmHg 93%
    03:00 +13°C° 0 mm 1 m/S 760 mmHg 94%
    04:00 +13°C° 0 mm 1 m/S 760 mmHg 94%
    05:00 +13°C° 0 mm 1 m/S 760 mmHg 93%
    06:00 +13°C° 0 mm 1 m/S 760 mmHg 93%
    07:00 +13°C° 0 mm 1 m/S 761 mmHg 92%
    08:00 +14°C° 0 mm 1 m/S 761 mmHg 88%
    09:00 +15°C° 0 mm 1 m/S 761 mmHg 85%
    10:00 +16°C° 0 mm 1 m/S 761 mmHg 81%
    11:00 +18°C° 0 mm 1 m/S 761 mmHg 77%
    12:00 +19°C° 0 mm 1 m/S 761 mmHg 73%
    13:00 +20°C° 0 mm 2 m/S 761 mmHg 68%
    14:00 +21°C° 0 mm 1 m/S 760 mmHg 69%
    15:00 +20°C° 0 mm 1 m/S 760 mmHg 70%
    16:00 +20°C° 0 mm 1 m/S 760 mmHg 72%
    17:00 +19°C° 0 mm 1 m/S 760 mmHg 76%
    18:00 +18°C° 0 mm 1 m/S 760 mmHg 81%
    19:00 +15°C° 0 mm 1 m/S 761 mmHg 85%
    20:00 +15°C° 0 mm 1 m/S 761 mmHg 86%
    21:00 +14°C° 0 mm 1 m/S 761 mmHg 87%
    22:00 +14°C° 0 mm 1 m/S 761 mmHg 88%
    23:00 +14°C° 0 mm 1 m/S 761 mmHg 88%
    Mehr zeigen